N624ML ESGP-ESMS

Flight info

Callsign N624ML
Flight time N/A
Altitude 1500
Route VFR
Aircraft EC35/L-G/C

Departure

Time N/A
Airport Säve Airport (ESGP)

Arrival

Time 2026-04-25 16:51
Airport Malmö Sturup Airport (ESMS)
Time Latitude Longitude Altitude Speed Heading
2026-04-25 15:35 57.77948 11.88164 67 ft 0 kts
2026-04-25 15:47 57.77948 11.88163 73 ft 0 kts
2026-04-25 15:47 57.77953 11.88168 76 ft 4 kts 351°
2026-04-25 15:47 57.78165 11.88209 163 ft 62 kts 347°
2026-04-25 15:48 57.78441 11.87475 324 ft 95 kts 270°
2026-04-25 15:48 57.77934 11.86499 243 ft 125 kts 193°
2026-04-25 15:48 57.77094 11.86336 391 ft 116 kts 182°
2026-04-25 15:48 57.76284 11.86243 496 ft 119 kts 184°
2026-04-25 15:49 57.75425 11.86165 503 ft 126 kts 183°
2026-04-25 15:49 57.74532 11.86081 508 ft 129 kts 184°
2026-04-25 15:49 57.73631 11.86005 504 ft 130 kts 183°
2026-04-25 15:49 57.72722 11.85940 503 ft 130 kts 183°
2026-04-25 15:50 57.71813 11.85916 500 ft 130 kts 176°
2026-04-25 15:50 57.70913 11.86091 505 ft 130 kts 173°
2026-04-25 15:50 57.70024 11.86254 502 ft 129 kts 175°
2026-04-25 15:50 57.69121 11.86457 504 ft 130 kts 174°
2026-04-25 15:51 57.68218 11.86647 499 ft 130 kts 174°
2026-04-25 15:51 57.67627 11.86773 504 ft 129 kts 174°
2026-04-25 15:51 57.66438 11.87033 502 ft 129 kts 174°
2026-04-25 15:51 57.65542 11.87230 505 ft 130 kts 173°
2026-04-25 15:52 57.64639 11.87402 494 ft 130 kts 173°
2026-04-25 15:52 57.63739 11.87604 499 ft 130 kts 168°
2026-04-25 15:52 57.62862 11.87959 503 ft 129 kts 167°
2026-04-25 15:52 57.61982 11.88314 496 ft 129 kts 167°
2026-04-25 15:53 57.61107 11.88705 496 ft 130 kts 160°
2026-04-25 15:53 57.60249 11.89246 500 ft 130 kts 160°
2026-04-25 15:53 57.59389 11.89786 501 ft 130 kts 160°
2026-04-25 15:53 57.58532 11.90303 500 ft 130 kts 161°
2026-04-25 15:54 57.57681 11.90890 499 ft 130 kts 156°
2026-04-25 15:54 57.56817 11.91534 505 ft 137 kts 154°
2026-04-25 15:54 57.55924 11.92228 503 ft 139 kts 155°
2026-04-25 15:54 57.55021 11.92921 496 ft 140 kts 155°
2026-04-25 15:55 57.54117 11.93613 505 ft 140 kts 154°
2026-04-25 15:55 57.53213 11.94307 500 ft 141 kts 154°
2026-04-25 15:55 57.52309 11.94998 501 ft 141 kts 155°
2026-04-25 15:55 57.51403 11.95684 501 ft 140 kts 153°
2026-04-25 15:56 57.50502 11.96385 494 ft 141 kts 153°
2026-04-25 15:56 57.49598 11.97069 501 ft 140 kts 155°
2026-04-25 15:56 57.48684 11.97743 507 ft 142 kts 155°
2026-04-25 15:56 57.47773 11.98425 491 ft 141 kts 152°
2026-04-25 15:57 57.46859 11.99132 488 ft 142 kts 154°
2026-04-25 15:57 57.45953 11.99794 496 ft 141 kts 154°
2026-04-25 15:57 57.45024 12.00477 490 ft 143 kts 155°
2026-04-25 15:57 57.44104 12.01158 487 ft 143 kts 155°
2026-04-25 15:58 57.43181 12.01852 491 ft 143 kts 154°
2026-04-25 15:58 57.42270 12.02536 492 ft 143 kts 154°
2026-04-25 15:58 57.41345 12.03220 497 ft 144 kts 154°
2026-04-25 15:58 57.40413 12.03916 496 ft 143 kts 154°
2026-04-25 15:59 57.39499 12.04597 501 ft 142 kts 154°
2026-04-25 15:59 57.38569 12.05288 502 ft 142 kts 154°
2026-04-25 15:59 57.37649 12.05972 493 ft 143 kts 156°
2026-04-25 15:59 57.36739 12.06644 494 ft 142 kts 154°
2026-04-25 16:00 57.35817 12.07326 490 ft 142 kts 154°
2026-04-25 16:00 57.35513 12.07553 496 ft 141 kts 154°
2026-04-25 16:00 57.33966 12.08730 487 ft 143 kts 154°
2026-04-25 16:00 57.33032 12.09420 485 ft 145 kts 153°
2026-04-25 16:01 57.32101 12.10117 486 ft 146 kts 154°
2026-04-25 16:01 57.31161 12.10815 487 ft 146 kts 153°
2026-04-25 16:01 57.30204 12.11529 495 ft 146 kts 153°
2026-04-25 16:01 57.29251 12.12237 490 ft 146 kts 153°
2026-04-25 16:02 57.28314 12.12928 484 ft 147 kts 154°
2026-04-25 16:02 57.27360 12.13648 493 ft 147 kts 151°
2026-04-25 16:02 57.26421 12.14366 495 ft 148 kts 152°
2026-04-25 16:02 57.25455 12.15090 477 ft 147 kts 151°
2026-04-25 16:03 57.24520 12.15798 472 ft 146 kts 152°
2026-04-25 16:03 57.23582 12.16513 482 ft 147 kts 151°
2026-04-25 16:03 57.22626 12.17234 477 ft 147 kts 151°
2026-04-25 16:03 57.21668 12.17942 471 ft 148 kts 154°
2026-04-25 16:04 57.20719 12.18605 479 ft 148 kts 154°
2026-04-25 16:04 57.19746 12.19293 476 ft 148 kts 153°
2026-04-25 16:04 57.18796 12.19978 472 ft 148 kts 154°
2026-04-25 16:04 57.17835 12.20677 478 ft 147 kts 153°
2026-04-25 16:05 57.16893 12.21390 471 ft 147 kts 153°
2026-04-25 16:05 57.15928 12.22100 478 ft 147 kts 154°
2026-04-25 16:05 57.14017 12.23506 477 ft 148 kts 153°
2026-04-25 16:06 57.13061 12.24213 484 ft 147 kts 153°
2026-04-25 16:06 57.12106 12.24904 480 ft 147 kts 151°
2026-04-25 16:06 57.11163 12.25631 488 ft 147 kts 152°
2026-04-25 16:06 57.10216 12.26328 490 ft 147 kts 153°
2026-04-25 16:07 57.09248 12.27026 482 ft 149 kts 153°
2026-04-25 16:07 57.08927 12.27257 480 ft 149 kts 152°
2026-04-25 16:07 57.07335 12.28438 482 ft 149 kts 154°
2026-04-25 16:07 57.06370 12.29122 487 ft 149 kts 154°
2026-04-25 16:08 57.06369 12.29123 487 ft 149 kts 154°
2026-04-25 16:08 57.05564 12.29703 488 ft 148 kts 154°
2026-04-25 16:08 57.04615 12.30384 482 ft 148 kts 154°
2026-04-25 16:08 57.03653 12.31076 479 ft 148 kts 153°
2026-04-25 16:09 57.02689 12.31783 487 ft 148 kts 153°
2026-04-25 16:09 57.01736 12.32481 481 ft 148 kts 154°
2026-04-25 16:09 57.00772 12.33181 481 ft 148 kts 153°
2026-04-25 16:09 56.99826 12.33870 481 ft 148 kts 153°
2026-04-25 16:10 56.98866 12.34572 484 ft 148 kts 154°
2026-04-25 16:10 56.97904 12.35266 481 ft 148 kts 153°
2026-04-25 16:10 56.96946 12.35963 486 ft 147 kts 153°
2026-04-25 16:10 56.96004 12.36652 487 ft 146 kts 154°
2026-04-25 16:11 56.95055 12.37341 481 ft 147 kts 153°
2026-04-25 16:11 56.94093 12.38049 479 ft 147 kts 153°
2026-04-25 16:11 56.93138 12.38743 482 ft 149 kts 153°
2026-04-25 16:11 56.92184 12.39459 487 ft 148 kts 150°
2026-04-25 16:12 56.91235 12.40177 482 ft 148 kts 153°
2026-04-25 16:12 56.90272 12.40868 486 ft 147 kts 155°
2026-04-25 16:12 56.89308 12.41531 480 ft 148 kts 155°
2026-04-25 16:12 56.88990 12.41751 485 ft 148 kts 155°
2026-04-25 16:13 56.87377 12.42891 484 ft 149 kts 155°
2026-04-25 16:13 56.86414 12.43576 481 ft 149 kts 155°
2026-04-25 16:13 56.85463 12.44264 477 ft 148 kts 155°
2026-04-25 16:13 56.84495 12.44966 482 ft 148 kts 155°
2026-04-25 16:14 56.83539 12.45652 475 ft 148 kts 155°
2026-04-25 16:14 56.82582 12.46345 479 ft 148 kts 154°
2026-04-25 16:14 56.81633 12.47035 485 ft 148 kts 154°
2026-04-25 16:14 56.80669 12.47737 482 ft 149 kts 154°
2026-04-25 16:15 56.79705 12.48437 487 ft 148 kts 154°
2026-04-25 16:15 56.78757 12.49121 489 ft 149 kts 154°
2026-04-25 16:15 56.77794 12.49813 485 ft 149 kts 155°
2026-04-25 16:15 56.76826 12.50503 485 ft 149 kts 155°
2026-04-25 16:16 56.75874 12.51186 489 ft 148 kts 154°
2026-04-25 16:16 56.74919 12.51872 484 ft 148 kts 154°
2026-04-25 16:16 56.73949 12.52574 479 ft 149 kts 154°
2026-04-25 16:16 56.72997 12.53264 481 ft 148 kts 154°
2026-04-25 16:17 56.72047 12.53950 480 ft 147 kts 154°
2026-04-25 16:17 56.71093 12.54638 484 ft 147 kts 154°
2026-04-25 16:17 56.70147 12.55317 482 ft 148 kts 154°
2026-04-25 16:17 56.69187 12.56001 485 ft 148 kts 154°
2026-04-25 16:18 56.68226 12.56685 483 ft 148 kts 154°
2026-04-25 16:18 56.67908 12.56911 481 ft 148 kts 154°
2026-04-25 16:18 56.66313 12.58048 476 ft 149 kts 155°
2026-04-25 16:18 56.65353 12.58733 473 ft 148 kts 154°
2026-04-25 16:19 56.64396 12.59418 471 ft 148 kts 154°
2026-04-25 16:19 56.63438 12.60057 472 ft 148 kts 157°
2026-04-25 16:19 56.62463 12.60648 475 ft 148 kts 158°
2026-04-25 16:20 56.60510 12.61821 464 ft 148 kts 157°
2026-04-25 16:20 56.59526 12.62409 475 ft 147 kts 158°
2026-04-25 16:20 56.57584 12.63566 472 ft 147 kts 158°
2026-04-25 16:21 56.56601 12.64152 468 ft 148 kts 159°
2026-04-25 16:21 56.55621 12.64729 491 ft 148 kts 159°
2026-04-25 16:21 56.54636 12.65313 467 ft 150 kts 159°
2026-04-25 16:21 56.53661 12.65890 477 ft 148 kts 160°
2026-04-25 16:22 56.52678 12.66472 485 ft 148 kts 160°
2026-04-25 16:22 56.51709 12.67045 506 ft 148 kts 159°
2026-04-25 16:22 56.50723 12.67629 497 ft 149 kts 160°
2026-04-25 16:22 56.49742 12.68207 495 ft 149 kts 161°
2026-04-25 16:23 56.48756 12.68784 502 ft 149 kts 161°
2026-04-25 16:23 56.47767 12.69363 500 ft 149 kts 161°
2026-04-25 16:23 56.46774 12.69947 498 ft 149 kts 161°
2026-04-25 16:23 56.45790 12.70526 516 ft 149 kts 163°
2026-04-25 16:24 56.44810 12.71094 509 ft 149 kts 163°
2026-04-25 16:24 56.43815 12.71667 498 ft 148 kts 164°
2026-04-25 16:24 56.42838 12.72234 503 ft 147 kts 162°
2026-04-25 16:24 56.41873 12.72824 498 ft 148 kts 162°
2026-04-25 16:25 56.40898 12.73399 489 ft 147 kts 165°
2026-04-25 16:25 56.40576 12.73589 499 ft 147 kts 163°
2026-04-25 16:25 56.38949 12.74549 509 ft 147 kts 165°
2026-04-25 16:25 56.37970 12.75111 494 ft 148 kts 166°
2026-04-25 16:26 56.36986 12.75677 499 ft 147 kts 166°
2026-04-25 16:26 56.36008 12.76242 492 ft 147 kts 167°
2026-04-25 16:26 56.35035 12.76804 499 ft 147 kts 166°
2026-04-25 16:26 56.34061 12.77372 491 ft 147 kts 166°
2026-04-25 16:27 56.33081 12.77949 500 ft 147 kts 165°
2026-04-25 16:27 56.32107 12.78527 499 ft 147 kts 166°
2026-04-25 16:27 56.31137 12.79100 490 ft 147 kts 166°
2026-04-25 16:27 56.30160 12.79677 495 ft 147 kts 165°
2026-04-25 16:28 56.29187 12.80246 486 ft 148 kts 166°
2026-04-25 16:28 56.28204 12.80822 485 ft 147 kts 166°
2026-04-25 16:28 56.27227 12.81397 494 ft 147 kts 166°
2026-04-25 16:28 56.26255 12.81965 495 ft 148 kts 166°
2026-04-25 16:29 56.25285 12.82537 486 ft 148 kts 166°
2026-04-25 16:29 56.24309 12.83111 492 ft 148 kts 166°
2026-04-25 16:29 56.23334 12.83683 490 ft 147 kts 166°
2026-04-25 16:29 56.22361 12.84256 500 ft 147 kts 165°
2026-04-25 16:30 56.21380 12.84838 497 ft 147 kts 165°
2026-04-25 16:30 56.20413 12.85410 499 ft 147 kts 165°
2026-04-25 16:30 56.19434 12.85980 499 ft 148 kts 165°
2026-04-25 16:30 56.18461 12.86553 501 ft 148 kts 165°
2026-04-25 16:31 56.17479 12.87130 500 ft 148 kts 165°
2026-04-25 16:31 56.16509 12.87697 505 ft 148 kts 165°
2026-04-25 16:31 56.15521 12.88275 503 ft 149 kts 166°
2026-04-25 16:31 56.14545 12.88845 499 ft 149 kts 165°
2026-04-25 16:32 56.13560 12.89415 500 ft 148 kts 165°
2026-04-25 16:32 56.12589 12.89985 505 ft 149 kts 165°
2026-04-25 16:32 56.11603 12.90562 501 ft 149 kts 165°
2026-04-25 16:32 56.10613 12.91142 508 ft 149 kts 164°
2026-04-25 16:33 56.09631 12.91720 499 ft 149 kts 164°
2026-04-25 16:33 56.08646 12.92299 497 ft 148 kts 164°
2026-04-25 16:33 56.07666 12.92864 506 ft 147 kts 165°
2026-04-25 16:33 56.06698 12.93422 502 ft 147 kts 163°
2026-04-25 16:34 56.05711 12.93998 493 ft 149 kts 164°
2026-04-25 16:34 56.04742 12.94559 495 ft 147 kts 163°
2026-04-25 16:34 56.03754 12.95138 510 ft 148 kts 162°
2026-04-25 16:34 56.02782 12.95714 497 ft 148 kts 163°
2026-04-25 16:35 56.01801 12.96279 501 ft 148 kts 164°
2026-04-25 16:35 56.00825 12.96838 504 ft 148 kts 165°
2026-04-25 16:35 55.99837 12.97406 492 ft 149 kts 164°
2026-04-25 16:35 55.98846 12.97979 493 ft 149 kts 165°
2026-04-25 16:36 55.97864 12.98565 501 ft 149 kts 164°
2026-04-25 16:36 55.97537 12.98761 496 ft 149 kts 163°
2026-04-25 16:36 55.95904 12.99757 500 ft 148 kts 161°
2026-04-25 16:36 55.94935 13.00333 495 ft 148 kts 161°
2026-04-25 16:37 55.93968 13.00893 494 ft 146 kts 163°
2026-04-25 16:37 55.92991 13.01450 495 ft 147 kts 162°
2026-04-25 16:37 55.92012 13.02013 475 ft 148 kts 163°
2026-04-25 16:37 55.91038 13.02573 497 ft 147 kts 162°
2026-04-25 16:38 55.90060 13.03135 505 ft 149 kts 163°
2026-04-25 16:38 55.89064 13.03703 511 ft 150 kts 165°
2026-04-25 16:38 55.88075 13.04254 499 ft 150 kts 166°
2026-04-25 16:38 55.87083 13.04815 492 ft 149 kts 165°
2026-04-25 16:39 55.86086 13.05392 494 ft 149 kts 163°
2026-04-25 16:39 55.85112 13.05957 489 ft 149 kts 164°
2026-04-25 16:39 55.84112 13.06531 482 ft 148 kts 164°
2026-04-25 16:39 55.83128 13.07098 487 ft 149 kts 164°
2026-04-25 16:40 55.82151 13.07663 482 ft 148 kts 164°
2026-04-25 16:40 55.81165 13.08224 483 ft 148 kts 164°
2026-04-25 16:40 55.80188 13.08784 492 ft 149 kts 164°
2026-04-25 16:40 55.79204 13.09350 487 ft 150 kts 165°
2026-04-25 16:41 55.78210 13.09914 491 ft 149 kts 164°
2026-04-25 16:41 55.77885 13.10099 492 ft 149 kts 164°
2026-04-25 16:41 55.75252 13.11600 510 ft 149 kts 163°
2026-04-25 16:42 55.74265 13.12173 503 ft 150 kts 164°
2026-04-25 16:42 55.73277 13.12740 511 ft 149 kts 165°
2026-04-25 16:42 55.72278 13.13300 506 ft 150 kts 166°
2026-04-25 16:42 55.71289 13.13850 500 ft 150 kts 166°
2026-04-25 16:43 55.70296 13.14407 505 ft 150 kts 165°
2026-04-25 16:43 55.69295 13.14989 504 ft 150 kts 165°
2026-04-25 16:43 55.68316 13.15559 505 ft 150 kts 165°
2026-04-25 16:43 55.67318 13.16122 494 ft 150 kts 166°
2026-04-25 16:44 55.66313 13.16680 507 ft 150 kts 166°
2026-04-25 16:44 55.65318 13.17242 498 ft 150 kts 165°
2026-04-25 16:44 55.64325 13.17818 497 ft 150 kts 164°
2026-04-25 16:44 55.63345 13.18384 499 ft 150 kts 165°
2026-04-25 16:45 55.62342 13.18948 502 ft 150 kts 166°
2026-04-25 16:45 55.61357 13.19497 502 ft 150 kts 166°
2026-04-25 16:45 55.60351 13.20060 495 ft 150 kts 167°
2026-04-25 16:45 55.59362 13.20617 503 ft 150 kts 166°
2026-04-25 16:46 55.58362 13.21187 488 ft 151 kts 166°
2026-04-25 16:46 55.57372 13.21766 503 ft 151 kts 162°
2026-04-25 16:46 55.56398 13.22473 496 ft 151 kts 161°
2026-04-25 16:46 55.56073 13.22701 501 ft 151 kts 162°
2026-04-25 16:47 55.54676 13.24539 510 ft 154 kts 131°
2026-04-25 16:47 55.53962 13.25970 506 ft 154 kts 129°
2026-04-25 16:47 55.53251 13.27389 509 ft 155 kts 130°
2026-04-25 16:47 55.52538 13.28825 503 ft 154 kts 129°
2026-04-25 16:48 55.51827 13.30238 495 ft 154 kts 129°
2026-04-25 16:48 55.51122 13.31646 496 ft 154 kts 130°
2026-04-25 16:48 55.50411 13.33061 502 ft 154 kts 130°
2026-04-25 16:48 55.49706 13.34473 511 ft 154 kts 131°
2026-04-25 16:49 55.49029 13.35953 489 ft 154 kts 116°
2026-04-25 16:49 55.48769 13.37723 508 ft 150 kts 91°
2026-04-25 16:49 55.48674 13.39524 486 ft 146 kts 77°
2026-04-25 16:49 55.49054 13.41023 460 ft 127 kts 35°
2026-04-25 16:50 55.49703 13.41583 481 ft 98 kts 353°
2026-04-25 16:50 55.50250 13.41489 512 ft 83 kts 324°
2026-04-25 16:50 55.50639 13.40781 485 ft 83 kts 310°
2026-04-25 16:50 55.51025 13.40039 508 ft 81 kts 315°
2026-04-25 16:51 55.51388 13.39256 485 ft 84 kts 310°
2026-04-25 16:51 55.51734 13.38466 477 ft 73 kts 314°
2026-04-25 16:51 55.52017 13.37887 477 ft 53 kts 313°
2026-04-25 16:51 55.52101 13.37740 472 ft 48 kts 319°
2026-04-25 16:52 55.52490 13.37314 386 ft 34 kts 333°
2026-04-25 16:52 55.52697 13.37124 354 ft 33 kts 342°
2026-04-25 16:52 55.52922 13.37021 335 ft 33 kts 342°
2026-04-25 16:52 55.53149 13.36888 337 ft 33 kts 337°
2026-04-25 16:53 55.53464 13.36676 271 ft 12 kts 335°
2026-04-25 16:53 55.53496 13.36695 242 ft 3 kts 163°
2026-04-25 16:53 55.53463 13.36709 238 ft 5 kts 179°
2026-04-25 16:54 55.53479 13.36688 238 ft 7 kts 259°
2026-04-25 16:54 55.53479 13.36635 224 ft 0 kts 174°